This is the latest recevied weather packets stored in our database for station/object GOLDWX. If no packets are shown the sender has not sent any weather packets the latest 10 day(s).
| Time | Temp. | Humidity | Pressure | Rain* | Wind** | Luminosity | Snow |
|---|---|---|---|---|---|---|---|
| 1777655573 | 18.89° C | 23% | 1018 hPa | 0 mm | - | - | - |
| 1777655272 | 18.89° C | 23% | 1018.1 hPa | 0 mm | - | - | - |
| 1777654670 | 18.89° C | 23% | 1018 hPa | 0 mm | - | - | - |
| 1777654369 | 18.33° C | 25% | 1018.1 hPa | 0 mm | - | - | - |
| 1777653768 | 18.33° C | 25% | 1018 hPa | 0 mm | - | - | - |
| 1777653467 | 17.78° C | 24% | 1018 hPa | 0 mm | - | - | - |
| 1777652866 | 17.78° C | 27% | 1018 hPa | 0 mm | - | - | - |
| 1777652564 | 17.22° C | 26% | 1017.9 hPa | 0 mm | - | - | - |
| 1777651963 | 16.67° C | 27% | 1017.9 hPa | 0 mm | - | - | - |
| 1777651662 | 16.67° C | 27% | 1018 hPa | 0 mm | - | - | - |
| 1777651060 | 16.11° C | 27% | 1017.9 hPa | 0 mm | - | - | - |
| 1777650759 | 16.11° C | 27% | 1017.9 hPa | 0 mm | - | - | - |
| 1777650157 | 16.11° C | 28% | 1017.8 hPa | 0 mm | - | - | - |
| 1777649857 | 16.11° C | 29% | 1017.8 hPa | 0 mm | - | - | - |
| 1777649255 | 15.56° C | 30% | 1017.8 hPa | 0 mm | - | - | - |
| 1777648954 | 15° C | 30% | 1017.8 hPa | 0 mm | - | - | - |
| 1777648352 | 15° C | 31% | 1017.8 hPa | 0 mm | - | - | - |
| 1777648052 | 15° C | 31% | 1017.8 hPa | 0 mm | - | - | - |
| 1777647450 | 14.44° C | 36% | 1017.8 hPa | 0 mm | - | - | - |
| 1777647149 | 13.89° C | 36% | 1017.7 hPa | 0 mm | - | - | - |
| 1777646547 | 12.78° C | 39% | 1017.8 hPa | 0 mm | - | - | - |
| 1777646246 | 12.22° C | 42% | 1017.7 hPa | 0 mm | - | - | - |
| 1777645644 | 11.11° C | 40% | 1017.7 hPa | 0 mm | - | - | - |
| 1777645343 | 10.56° C | 43% | 1017.6 hPa | 0 mm | - | - | - |
| 1777644741 | 10° C | 46% | 1017.5 hPa | 0 mm | - | - | - |
* Rain since midnight (hover to see other rain measurements)
** Current wind speed in m/s (hover to see current wind gust speed)